Hourly Weather Ablis

Today, 5 August, Thursday

Time Temperature Precipitation Wind Pressure Humidity
00:00 +16°C° 0 mm 1 mps 745 mmHg 82%
01:00 +16°C° 0 mm 1 mps 745 mmHg 82%
02:00 +16°C° 0 mm 1 mps 745 mmHg 83%
03:00 +16°C° 0 mm 1 mps 744 mmHg 84%
04:00 +16°C° 0 mm 1 mps 744 mmHg 84%
05:00 +16°C° 0 mm 2 mps 744 mmHg 84%
06:00 +16°C° 0 mm 2 mps 744 mmHg 84%
07:00 +17°C° 0 mm 3 mps 744 mmHg 76%
08:00 +19°C° 0 mm 3 mps 744 mmHg 68%
09:00 +20°C° 0 mm 4 mps 744 mmHg 61%
10:00 +21°C° 0 mm 5 mps 744 mmHg 56%
11:00 +22°C° 0 mm 5 mps 743 mmHg 51%
12:00 +23°C° 0 mm 6 mps 743 mmHg 46%
13:00 +22°C° 0 mm 6 mps 742 mmHg 53%
14:00 +21°C° 0 mm 6 mps 742 mmHg 60%
15:00 +20°C° 0 mm 6 mps 742 mmHg 68%
16:00 +20°C° 0 mm 6 mps 741 mmHg 71%
17:00 +20°C° 0 mm 6 mps 741 mmHg 74%
18:00 +20°C° 0 mm 6 mps 740 mmHg 77%
19:00 +19°C° 0.2 mm 6 mps 740 mmHg 80%
20:00 +17°C° 0.2 mm 6 mps 740 mmHg 83%
21:00 +17°C° 0.2 mm 6 mps 740 mmHg 85%
22:00 +16°C° 0 mm 7 mps 740 mmHg 86%
23:00 +16°C° 0 mm 7 mps 740 mmHg 87%

Tomorrow, 6 August, Friday

Time Temperature Precipitation Wind Pressure Humidity
00:00 +16°C° 0 mm 7 mps 740 mmHg 88%
01:00 +15°C° 0 mm 7 mps 740 mmHg 86%
02:00 +15°C° 0 mm 7 mps 740 mmHg 85%
03:00 +15°C° 0 mm 7 mps 740 mmHg 84%
04:00 +15°C° 0.1 mm 7 mps 740 mmHg 85%
05:00 +15°C° 0.1 mm 7 mps 740 mmHg 85%
06:00 +15°C° 0.1 mm 7 mps 741 mmHg 85%
07:00 +16°C° 0 mm 7 mps 741 mmHg 83%
08:00 +16°C° 0 mm 7 mps 741 mmHg 80%
09:00 +17°C° 0 mm 7 mps 742 mmHg 77%
10:00 +20°C° 0.1 mm 7 mps 742 mmHg 68%
11:00 +21°C° 0.1 mm 7 mps 742 mmHg 59%
12:00 +23°C° 0.1 mm 8 mps 742 mmHg 50%
13:00 +23°C° 0 mm 7 mps 742 mmHg 50%
14:00 +23°C° 0 mm 7 mps 741 mmHg 50%
15:00 +23°C° 0 mm 7 mps 741 mmHg 50%
16:00 +22°C° 0 mm 6 mps 741 mmHg 52%
17:00 +21°C° 0 mm 5 mps 741 mmHg 54%
18:00 +21°C° 0 mm 4 mps 741 mmHg 56%
19:00 +20°C° 0 mm 4 mps 741 mmHg 59%
20:00 +18°C° 0 mm 3 mps 741 mmHg 63%
21:00 +17°C° 0 mm 3 mps 741 mmHg 66%
22:00 +17°C° 0 mm 3 mps 741 mmHg 68%
23:00 +16°C° 0 mm 2 mps 741 mmHg 71%

Day after tomorrow, 7 August, Saturday

Time Temperature Precipitation Wind Pressure Humidity
00:00 +15°C° 0 mm 2 mps 741 mmHg 73%
01:00 +15°C° 0 mm 2 mps 741 mmHg 75%
02:00 +15°C° 0 mm 2 mps 741 mmHg 76%
03:00 +14°C° 0 mm 2 mps 740 mmHg 78%
04:00 +15°C° 0 mm 2 mps 740 mmHg 78%
05:00 +14°C° 0 mm 3 mps 740 mmHg 79%
06:00 +14°C° 0 mm 3 mps 739 mmHg 79%
07:00 +15°C° 0 mm 4 mps 739 mmHg 74%
08:00 +17°C° 0 mm 5 mps 739 mmHg 70%
09:00 +19°C° 0 mm 5 mps 739 mmHg 65%
10:00 +20°C° 0.2 mm 6 mps 739 mmHg 63%
11:00 +20°C° 0.2 mm 7 mps 739 mmHg 62%
12:00 +21°C° 0.2 mm 7 mps 739 mmHg 61%
13:00 +21°C° 0.3 mm 7 mps 739 mmHg 60%
14:00 +21°C° 0.3 mm 7 mps 739 mmHg 60%
15:00 +21°C° 0.3 mm 8 mps 739 mmHg 59%
16:00 +21°C° 0.1 mm 7 mps 739 mmHg 58%
17:00 +21°C° 0.1 mm 7 mps 739 mmHg 56%
18:00 +20°C° 0.1 mm 7 mps 739 mmHg 55%
19:00 +19°C° 0 mm 6 mps 740 mmHg 57%
20:00 +17°C° 0 mm 6 mps 740 mmHg 60%
21:00 +16°C° 0 mm 6 mps 740 mmHg 62%
22:00 +15°C° 0 mm 6 mps 741 mmHg 68%
23:00 +15°C° 0 mm 7 mps 741 mmHg 75%

8 August, Sunday

Time Temperature Precipitation Wind Pressure Humidity
00:00 +14°C° 0 mm 7 mps 742 mmHg 81%
01:00 +14°C° 0 mm 7 mps 742 mmHg 82%
02:00 +14°C° 0 mm 6 mps 742 mmHg 82%
03:00 +15°C° 0 mm 6 mps 742 mmHg 82%
04:00 +14°C° 0 mm 6 mps 743 mmHg 79%
05:00 +14°C° 0 mm 6 mps 744 mmHg 76%
06:00 +14°C° 0 mm 6 mps 744 mmHg 74%
07:00 +15°C° 0 mm 6 mps 745 mmHg 70%
08:00 +16°C° 0 mm 6 mps 745 mmHg 66%
09:00 +17°C° 0 mm 6 mps 746 mmHg 61%
10:00 +18°C° 0 mm 7 mps 746 mmHg 54%
11:00 +21°C° 0 mm 7 mps 746 mmHg 47%
12:00 +23°C° 0 mm 7 mps 746 mmHg 39%
13:00 +22°C° 0 mm 7 mps 746 mmHg 40%
14:00 +22°C° 0 mm 6 mps 747 mmHg 41%
15:00 +22°C° 0 mm 6 mps 747 mmHg 41%
16:00 +22°C° 0 mm 5 mps 747 mmHg 44%
17:00 +21°C° 0 mm 4 mps 747 mmHg 47%
18:00 +21°C° 0 mm 3 mps 747 mmHg 50%
19:00 +20°C° 0 mm 3 mps 748 mmHg 51%
20:00 +19°C° 0 mm 3 mps 748 mmHg 53%
21:00 +18°C° 0 mm 3 mps 748 mmHg 55%
22:00 +18°C° 0 mm 4 mps 748 mmHg 58%
23:00 +18°C° 0 mm 4 mps 749 mmHg 62%

9 August, Monday

Time Temperature Precipitation Wind Pressure Humidity
00:00 +17°C° 0 mm 4 mps 749 mmHg 65%
01:00 +15°C° 0.1 mm 4 mps 749 mmHg 71%
02:00 +15°C° 0.1 mm 4 mps 749 mmHg 77%
03:00 +14°C° 0.1 mm 4 mps 749 mmHg 82%
04:00 +14°C° 0.1 mm 4 mps 749 mmHg 85%
05:00 +14°C° 0.1 mm 4 mps 749 mmHg 87%
06:00 +14°C° 0.1 mm 4 mps 750 mmHg 89%
07:00 +15°C° 0 mm 4 mps 750 mmHg 79%
08:00 +17°C° 0 mm 5 mps 750 mmHg 69%
09:00 +20°C° 0 mm 5 mps 751 mmHg 60%
10:00 +21°C° 0 mm 5 mps 751 mmHg 55%
11:00 +22°C° 0 mm 5 mps 751 mmHg 51%
12:00 +23°C° 0 mm 5 mps 751 mmHg 46%
13:00 +23°C° 0 mm 5 mps 751 mmHg 46%
14:00 +23°C° 0 mm 5 mps 751 mmHg 46%
15:00 +23°C° 0 mm 5 mps 751 mmHg 46%
16:00 +23°C° 0 mm 4 mps 751 mmHg 49%
17:00 +22°C° 0 mm 4 mps 751 mmHg 52%
18:00 +22°C° 0 mm 3 mps 751 mmHg 54%
19:00 +20°C° 0 mm 2 mps 752 mmHg 62%
20:00 +19°C° 0 mm 2 mps 752 mmHg 70%
21:00 +18°C° 0 mm 1 mps 752 mmHg 77%
22:00 +18°C° 0 mm 1 mps 753 mmHg 80%
23:00 +16°C° 0 mm 1 mps 753 mmHg 83%

10 August, Tuesday

Time Temperature Precipitation Wind Pressure Humidity
00:00 +15°C° 0 mm 1 mps 753 mmHg 87%
01:00 +15°C° 0 mm 1 mps 753 mmHg 87%
02:00 +15°C° 0 mm 1 mps 753 mmHg 88%
03:00 +14°C° 0 mm 1 mps 753 mmHg 89%
04:00 +15°C° 0 mm 1 mps 753 mmHg 87%
05:00 +15°C° 0 mm 1 mps 753 mmHg 84%
06:00 +15°C° 0 mm 1 mps 753 mmHg 81%
07:00 +18°C° 0 mm 1 mps 753 mmHg 72%
08:00 +21°C° 0 mm 1 mps 753 mmHg 63%
09:00 +23°C° 0 mm 1 mps 753 mmHg 54%
10:00 +24°C° 0 mm 1 mps 753 mmHg 50%
11:00 +25°C° 0 mm 1 mps 753 mmHg 46%
12:00 +27°C° 0 mm 1 mps 752 mmHg 42%
13:00 +27°C° 0 mm 1 mps 752 mmHg 40%
14:00 +27°C° 0 mm 1 mps 752 mmHg 39%
15:00 +28°C° 0 mm 1 mps 751 mmHg 37%
16:00 +27°C° 0 mm 1 mps 751 mmHg 40%
17:00 +27°C° 0 mm 1 mps 751 mmHg 42%
18:00 +26°C° 0 mm 1 mps 750 mmHg 45%
19:00 +24°C° 0 mm 2 mps 751 mmHg 52%
20:00 +21°C° 0 mm 2 mps 751 mmHg 59%
21:00 +19°C° 0 mm 3 mps 751 mmHg 65%
22:00 +18°C° 0 mm 3 mps 751 mmHg 68%
23:00 +18°C° 0 mm 2 mps 750 mmHg 71%
Show more

We Need Your Consent

Meteoprog and our Service Providers may store and access personal data such as cookies, device identifiers or other similar technologies on your device and process such data to personalise content and ads, as well as provide social media features and to analyse the traffic.

  • Store and/or access information on your device

    Cookies, device identifiers or other information can be stored or accessed on your device for the purposes indicated above.

  • Personalised ads and content, ad and content measurement, audience insights, and products development

    Ads and content can be personalised based on a profile. More data can be added to better personalise ads and content. Ad and content performance can be measured. Insights about the audience who saw the ads and content can be derived. Such data can be used to develop or improve user’s experience, systems and software.

By clicking ‘I Agree’ you will allow the use of indicated cookies, device identifiers, web beacons or other similar technologies. Your settings can be changed in the browser on your device.

For certain purposes, legitimate interests may be relied on, rather than consent. You can read more about this in our Privacy and Cookie Policy.